Time,TemperatureF,DewpointF,PressureIn,WindDirection,WindDirectionDegrees,WindSpeedMPH,WindSpeedGustMPH,Humidity,HourlyPrecipIn,Conditions,Clouds,dailyrainin,SoftwareType,DateUTC
2013-03-29 00:02:00,62.6,23.9,30.09,WSW,248,2.9,7.2,23,0.00,,,0.00,WUHU216HW,2013-03-29 07:02:00,
2013-03-29 00:07:00,62.5,23.9,30.09,WSW,248,4.9,6.5,23,0.00,,,0.00,WUHU216HW,2013-03-29 07:07:00,
2013-03-29 00:12:00,62.5,23.9,30.09,West,270,4.3,6.5,23,0.00,,,0.00,WUHU216HW,2013-03-29 07:12:00,
2013-03-29 00:17:00,62.5,23.9,30.09,WSW,248,3.4,6.0,23,0.00,,,0.00,WUHU216HW,2013-03-29 07:17:00,
2013-03-29 00:22:00,62.3,23.7,30.09,WNW,293,4.7,6.3,23,0.00,,,0.00,WUHU216HW,2013-03-29 07:22:00,
2013-03-29 00:27:00,62.3,23.7,30.09,WSW,248,3.8,6.3,23,0.00,,,0.00,WUHU216HW,2013-03-29 07:27:00,
2013-03-29 00:32:00,62.1,23.5,30.09,WNW,293,3.8,5.6,23,0.00,,,0.00,WUHU216HW,2013-03-29 07:32:00,
2013-03-29 00:37:00,62.1,23.5,30.08,WSW,248,3.4,4.0,23,0.00,,,0.00,WUHU216HW,2013-03-29 07:37:00,
2013-03-29 00:42:00,61.9,22.4,30.08,NW,315,2.5,4.0,22,0.00,,,0.00,WUHU216HW,2013-03-29 07:42:00,
2013-03-29 00:47:00,61.7,23.2,30.08,WNW,293,2.5,4.0,23,0.00,,,0.00,WUHU216HW,2013-03-29 07:47:00,
2013-03-29 00:52:00,61.6,23.0,30.08,West,270,0.4,3.4,23,0.00,,,0.00,WUHU216HW,2013-03-29 07:52:00,
2013-03-29 00:57:00,61.4,23.0,30.08,WSW,248,1.8,2.5,23,0.00,,,0.00,WUHU216HW,2013-03-29 07:57:00,
2013-03-29 01:02:00,61.0,22.6,30.08,WSW,248,1.6,2.5,23,0.00,,,0.00,WUHU216HW,2013-03-29 08:02:00,
2013-03-29 01:07:00,60.8,22.5,30.08,WSW,248,1.1,2.5,23,0.00,,,0.00,WUHU216HW,2013-03-29 08:07:00,
2013-03-29 01:12:00,60.8,22.5,30.08,WSW,248,0.4,1.6,23,0.00,,,0.00,WUHU216HW,2013-03-29 08:12:00,
2013-03-29 01:17:00,60.7,22.3,30.08,West,270,0.0,1.3,23,0.00,,,0.00,WUHU216HW,2013-03-29 08:17:00,
2013-03-29 01:22:00,60.5,23.1,30.07,West,270,0.2,1.3,24,0.00,,,0.00,WUHU216HW,2013-03-29 08:22:00,
2013-03-29 01:27:00,60.3,23.0,30.07,WNW,293,0.0,1.3,24,0.00,,,0.00,WUHU216HW,2013-03-29 08:27:00,
2013-03-29 01:32:00,60.1,22.9,30.07,WNW,293,0.0,1.1,24,0.00,,,0.00,WUHU216HW,2013-03-29 08:32:00,
2013-03-29 01:37:00,59.8,22.5,30.07,WNW,293,0.0,0.0,24,0.00,,,0.00,WUHU216HW,2013-03-29 08:37:00,
2013-03-29 01:42:00,59.4,22.2,30.07,WNW,293,0.0,0.0,24,0.00,,,0.00,WUHU216HW,2013-03-29 08:42:00,
2013-03-29 01:47:00,59.2,22.1,30.07,WNW,293,0.0,0.0,24,0.00,,,0.00,WUHU216HW,2013-03-29 08:47:00,
2013-03-29 01:52:00,59.0,22.9,30.07,WNW,293,0.0,0.0,25,0.00,,,0.00,WUHU216HW,2013-03-29 08:52:00,
2013-03-29 01:57:00,58.7,22.6,30.07,WNW,293,0.0,0.0,25,0.00,,,0.00,WUHU216HW,2013-03-29 08:57:00,
2013-03-29 02:02:00,58.7,22.6,30.06,North,0,0.0,0.4,25,0.00,,,0.00,WUHU216HW,2013-03-29 09:02:00,
2013-03-29 02:07:00,58.7,22.6,30.06,North,0,0.0,0.4,25,0.00,,,0.00,WUHU216HW,2013-03-29 09:07:00,
2013-03-29 02:12:00,58.5,23.4,30.06,North,0,0.0,0.0,26,0.00,,,0.00,WUHU216HW,2013-03-29 09:12:00,
2013-03-29 02:17:00,58.1,24.0,30.07,NNW,338,0.4,1.3,27,0.00,,,0.00,WUHU216HW,2013-03-29 09:17:00,
2013-03-29 02:22:00,58.1,24.0,30.07,NNW,338,0.0,1.3,27,0.00,,,0.00,WUHU216HW,2013-03-29 09:22:00,
2013-03-29 02:27:00,58.0,23.9,30.07,NNW,338,0.0,0.4,27,0.00,,,0.00,WUHU216HW,2013-03-29 09:27:00,
2013-03-29 02:32:00,57.8,23.7,30.07,SE,135,0.2,0.7,27,0.00,,,0.00,WUHU216HW,2013-03-29 09:32:00,
2013-03-29 02:37:00,57.8,24.7,30.07,ESE,113,0.0,0.7,28,0.00,,,0.00,WUHU216HW,2013-03-29 09:37:00,
2013-03-29 02:42:00,57.4,24.4,30.07,ESE,113,0.0,0.2,28,0.00,,,0.00,WUHU216HW,2013-03-29 09:42:00,
2013-03-29 02:47:00,57.4,24.4,30.07,ESE,113,0.0,0.0,28,0.00,,,0.00,WUHU216HW,2013-03-29 09:47:00,
2013-03-29 02:52:00,57.2,24.2,30.07,ESE,113,0.2,0.2,28,0.00,,,0.00,WUHU216HW,2013-03-29 09:52:00,
2013-03-29 02:57:00,57.2,24.2,30.07,ESE,113,0.0,1.1,28,0.00,,,0.00,WUHU216HW,2013-03-29 09:57:00,
2013-03-29 03:02:00,57.2,24.2,30.07,NNE,23,0.4,1.1,28,0.00,,,0.00,WUHU216HW,2013-03-29 10:02:00,
2013-03-29 03:07:00,57.4,24.4,30.07,North,0,0.4,1.1,28,0.00,,,0.00,WUHU216HW,2013-03-29 10:07:00,
2013-03-29 03:12:00,58.0,23.9,30.07,North,0,0.4,2.0,27,0.00,,,0.00,WUHU216HW,2013-03-29 10:12:00,
2013-03-29 03:17:00,58.9,23.7,30.07,NNE,23,0.2,2.0,26,0.00,,,0.00,WUHU216HW,2013-03-29 10:17:00,
2013-03-29 03:22:00,59.2,23.1,30.06,NNE,23,0.4,1.6,25,0.00,,,0.00,WUHU216HW,2013-03-29 10:22:00,
2013-03-29 03:27:00,59.2,23.1,30.06,NNE,23,0.0,1.1,25,0.00,,,0.00,WUHU216HW,2013-03-29 10:27:00,
2013-03-29 03:33:00,59.0,22.9,30.07,NNE,23,0.0,0.7,25,0.00,,,0.00,WUHU216HW,2013-03-29 10:33:00,
2013-03-29 03:38:00,58.7,22.6,30.07,NNE,23,0.0,0.7,25,0.00,,,0.00,WUHU216HW,2013-03-29 10:38:00,
2013-03-29 03:43:00,58.1,24.0,30.07,NNE,23,0.0,0.0,27,0.00,,,0.00,WUHU216HW,2013-03-29 10:43:00,
2013-03-29 03:49:00,57.8,23.7,30.07,NNE,23,0.0,0.0,27,0.00,,,0.00,WUHU216HW,2013-03-29 10:49:00,
2013-03-29 03:54:00,57.2,23.2,30.07,North,0,0.0,0.0,27,0.00,,,0.00,WUHU216HW,2013-03-29 10:54:00,
2013-03-29 03:59:00,57.1,23.0,30.07,WNW,293,0.0,0.2,27,0.00,,,0.00,WUHU216HW,2013-03-29 10:59:00,
2013-03-29 04:04:00,56.9,23.0,30.07,WSW,248,0.7,1.8,27,0.00,,,0.00,WUHU216HW,2013-03-29 11:04:00,
2013-03-29 04:09:00,56.9,23.9,30.07,WNW,293,0.0,1.8,28,0.00,,,0.00,WUHU216HW,2013-03-29 11:09:00,
2013-03-29 04:14:00,56.7,22.8,30.07,NW,315,0.4,0.9,27,0.00,,,0.00,WUHU216HW,2013-03-29 11:14:00,
2013-03-29 04:19:00,56.7,22.8,30.07,WSW,248,0.7,0.7,27,0.00,,,0.00,WUHU216HW,2013-03-29 11:19:00,
2013-03-29 04:24:00,56.5,22.6,30.07,SSE,158,0.0,0.7,27,0.00,,,0.00,WUHU216HW,2013-03-29 11:24:00,
2013-03-29 04:29:00,56.3,23.4,30.07,SSE,158,0.0,0.4,28,0.00,,,0.00,WUHU216HW,2013-03-29 11:29:00,
2013-03-29 04:34:00,56.0,23.0,30.07,SSE,158,0.0,0.0,28,0.00,,,0.00,WUHU216HW,2013-03-29 11:34:00,
2013-03-29 04:39:00,55.4,22.6,30.07,SSE,158,0.0,0.0,28,0.00,,,0.00,WUHU216HW,2013-03-29 11:39:00,
2013-03-29 04:44:00,55.1,23.2,30.07,SSE,158,0.0,0.0,29,0.00,,,0.00,WUHU216HW,2013-03-29 11:44:00,
2013-03-29 04:49:00,54.5,22.9,30.07,South,180,0.0,0.0,29,0.00,,,0.00,WUHU216HW,2013-03-29 11:49:00,
2013-03-29 04:54:00,54.2,22.5,30.07,South,180,0.0,0.0,29,0.00,,,0.00,WUHU216HW,2013-03-29 11:54:00,
2013-03-29 04:59:00,53.8,23.2,30.07,South,180,0.0,0.0,30,0.00,,,0.00,WUHU216HW,2013-03-29 11:59:00,
2013-03-29 05:05:00,53.5,22.9,30.08,SSE,158,0.0,0.4,30,0.00,,,0.00,WUHU216HW,2013-03-29 12:05:00,
2013-03-29 05:10:00,53.1,23.2,30.08,SSE,158,0.0,0.4,31,0.00,,,0.00,WUHU216HW,2013-03-29 12:10:00,
2013-03-29 05:15:00,52.9,23.0,30.08,SSE,158,0.0,0.0,31,0.00,,,0.00,WUHU216HW,2013-03-29 12:15:00,
2013-03-29 05:20:00,52.4,22.6,30.08,South,180,0.0,0.0,31,0.00,,,0.00,WUHU216HW,2013-03-29 12:20:00,
2013-03-29 05:25:00,52.2,23.1,30.08,South,180,0.0,0.0,32,0.00,,,0.00,WUHU216HW,2013-03-29 12:25:00,
2013-03-29 05:30:00,51.8,22.8,30.08,South,180,0.0,0.0,32,0.00,,,0.00,WUHU216HW,2013-03-29 12:30:00,
2013-03-29 05:35:00,51.5,22.5,30.08,South,180,0.0,0.0,32,0.00,,,0.00,WUHU216HW,2013-03-29 12:35:00,
2013-03-29 05:40:00,51.1,23.5,30.09,NW,315,0.0,0.7,34,0.00,,,0.00,WUHU216HW,2013-03-29 12:40:00,
2013-03-29 05:45:00,50.9,23.3,30.09,NW,315,0.0,0.7,34,0.00,,,0.00,WUHU216HW,2013-03-29 12:45:00,
2013-03-29 05:50:00,50.8,23.2,30.09,NNW,338,0.0,0.0,34,0.00,,,0.00,WUHU216HW,2013-03-29 12:50:00,
2013-03-29 05:55:00,50.6,23.1,30.09,NNW,338,0.0,0.0,34,0.00,,,0.00,WUHU216HW,2013-03-29 12:55:00,
2013-03-29 06:00:00,50.2,22.7,30.09,NNW,338,0.0,0.0,34,0.00,,,0.00,WUHU216HW,2013-03-29 13:00:00,
2013-03-29 06:05:00,49.9,22.4,30.09,NNW,338,0.0,0.0,34,0.00,,,0.00,WUHU216HW,2013-03-29 13:05:00,
2013-03-29 06:10:00,49.7,23.0,30.09,NNW,338,0.4,0.4,35,0.00,,,0.00,WUHU216HW,2013-03-29 13:10:00,
2013-03-29 06:15:00,49.1,23.8,30.09,NNW,338,0.0,0.7,37,0.00,,,0.00,WUHU216HW,2013-03-29 13:15:00,
2013-03-29 06:20:00,49.0,23.0,30.09,NNW,338,0.0,0.7,36,0.00,,,0.00,WUHU216HW,2013-03-29 13:20:00,
2013-03-29 06:25:00,49.1,23.8,30.10,NNE,23,0.0,0.0,37,0.00,,,0.00,WUHU216HW,2013-03-29 13:25:00,
2013-03-29 06:30:00,49.1,23.8,30.10,NNE,23,0.0,0.0,37,0.00,,,0.00,WUHU216HW,2013-03-29 13:30:00,
2013-03-29 06:35:00,48.8,23.5,30.10,NNE,23,0.0,0.0,37,0.00,,,0.00,WUHU216HW,2013-03-29 13:35:00,
2013-03-29 06:40:00,48.8,23.5,30.10,NNE,23,0.0,0.0,37,0.00,,,0.00,WUHU216HW,2013-03-29 13:40:00,
2013-03-29 06:45:00,49.0,24.3,30.10,NNE,23,0.0,0.0,38,0.00,,,0.00,WUHU216HW,2013-03-29 13:45:00,
2013-03-29 06:50:00,49.0,24.3,30.10,NNE,23,0.0,0.0,38,0.00,,,0.00,WUHU216HW,2013-03-29 13:50:00,
2013-03-29 06:55:00,49.1,24.5,30.10,NNE,23,0.0,0.0,38,0.00,,,0.00,WUHU216HW,2013-03-29 13:55:00,
2013-03-29 07:00:00,49.5,24.9,30.10,NNE,23,0.0,0.0,38,0.00,,,0.00,WUHU216HW,2013-03-29 14:00:00,
2013-03-29 07:05:00,49.9,25.1,30.10,NNE,23,0.0,0.0,38,0.00,,,0.00,WUHU216HW,2013-03-29 14:05:00,
2013-03-29 07:10:00,50.6,25.7,30.10,NNE,23,0.0,0.0,38,0.00,,,0.00,WUHU216HW,2013-03-29 14:10:00,
2013-03-29 07:15:00,50.9,26.1,30.11,NE,45,0.0,0.0,38,0.00,,,0.00,WUHU216HW,2013-03-29 14:15:00,
2013-03-29 07:20:00,51.5,25.9,30.11,NE,45,0.0,0.0,37,0.00,,,0.00,WUHU216HW,2013-03-29 14:20:00,
2013-03-29 07:25:00,52.0,26.4,30.11,NNE,23,0.0,0.0,37,0.00,,,0.00,WUHU216HW,2013-03-29 14:25:00,
2013-03-29 07:30:00,52.6,26.2,30.10,WSW,248,0.0,0.7,36,0.00,,,0.00,WUHU216HW,2013-03-29 14:30:00,
2013-03-29 07:35:00,53.3,26.1,30.11,WSW,248,0.0,0.7,35,0.00,,,0.00,WUHU216HW,2013-03-29 14:35:00,
2013-03-29 07:40:00,53.8,25.9,30.11,WSW,248,0.0,0.0,34,0.00,,,0.00,WUHU216HW,2013-03-29 14:40:00,
2013-03-29 07:45:00,54.4,26.4,30.11,SSE,158,0.0,0.2,34,0.00,,,0.00,WUHU216HW,2013-03-29 14:45:00,
2013-03-29 07:50:00,55.1,26.3,30.11,SSE,158,0.0,0.2,33,0.00,,,0.00,WUHU216HW,2013-03-29 14:50:00,
2013-03-29 07:55:00,55.6,26.0,30.11,SSE,158,0.0,0.0,32,0.00,,,0.00,WUHU216HW,2013-03-29 14:55:00,
2013-03-29 08:00:00,56.2,25.8,30.11,SSE,158,0.0,0.0,31,0.00,,,0.00,WUHU216HW,2013-03-29 15:00:00,
2013-03-29 08:05:00,56.7,26.3,30.11,SSE,158,0.0,0.0,31,0.00,,,0.00,WUHU216HW,2013-03-29 15:05:00,
2013-03-29 08:10:00,57.2,26.1,30.11,SSE,158,0.0,0.0,30,0.00,,,0.00,WUHU216HW,2013-03-29 15:10:00,
2013-03-29 08:15:00,58.0,25.8,30.11,SSE,158,0.0,0.2,29,0.00,,,0.00,WUHU216HW,2013-03-29 15:15:00,
2013-03-29 08:20:00,58.5,26.3,30.11,SE,135,0.9,1.1,29,0.00,,,0.00,WUHU216HW,2013-03-29 15:20:00,
2013-03-29 08:25:00,59.0,25.7,30.12,SE,135,0.2,1.6,28,0.00,,,0.00,WUHU216HW,2013-03-29 15:25:00,
2013-03-29 08:30:00,59.8,27.4,30.12,SE,135,1.6,2.0,29,0.00,,,0.00,WUHU216HW,2013-03-29 15:30:00,
2013-03-29 08:35:00,60.3,26.8,30.12,SSE,158,1.6,2.5,28,0.00,,,0.00,WUHU216HW,2013-03-29 15:35:00,
2013-03-29 08:40:00,60.8,26.3,30.12,West,270,0.9,2.5,27,0.00,,,0.00,WUHU216HW,2013-03-29 15:40:00,
2013-03-29 08:45:00,61.2,26.7,30.12,WSW,248,1.1,2.2,27,0.00,,,0.00,WUHU216HW,2013-03-29 15:45:00,
2013-03-29 08:50:00,61.6,26.9,30.12,SSE,158,0.9,2.2,27,0.00,,,0.00,WUHU216HW,2013-03-29 15:50:00,
2013-03-29 08:55:00,61.9,27.3,30.12,SE,135,1.8,2.2,27,0.00,,,0.00,WUHU216HW,2013-03-29 15:55:00,
2013-03-29 09:00:00,62.3,27.5,30.12,SE,135,0.4,2.5,27,0.00,,,0.00,WUHU216HW,2013-03-29 16:00:00,
2013-03-29 09:05:00,62.6,27.9,30.12,ESE,113,1.1,2.5,27,0.00,,,0.00,WUHU216HW,2013-03-29 16:05:00,
2013-03-29 09:10:00,63.0,26.2,30.12,SE,135,0.7,1.8,25,0.00,,,0.00,WUHU216HW,2013-03-29 16:10:00,
2013-03-29 09:15:00,63.4,26.6,30.12,WSW,248,1.1,1.8,25,0.00,,,0.00,WUHU216HW,2013-03-29 16:15:00,
2013-03-29 09:20:00,63.7,26.8,30.12,North,0,0.0,1.8,25,0.00,,,0.00,WUHU216HW,2013-03-29 16:20:00,
2013-03-29 09:25:00,63.9,27.0,30.12,WNW,293,1.8,2.9,25,0.00,,,0.00,WUHU216HW,2013-03-29 16:25:00,
2013-03-29 09:30:00,64.3,28.3,30.12,NNE,23,0.0,3.1,26,0.00,,,0.00,WUHU216HW,2013-03-29 16:30:00,
2013-03-29 09:35:00,64.6,28.6,30.12,WNW,293,0.4,4.5,26,0.00,,,0.00,WUHU216HW,2013-03-29 16:35:00,
2013-03-29 09:40:00,65.0,28.9,30.12,SW,225,0.0,4.5,26,0.00,,,0.00,WUHU216HW,2013-03-29 16:40:00,
2013-03-29 09:45:00,65.2,29.1,30.12,WSW,248,0.9,2.7,26,0.00,,,0.00,WUHU216HW,2013-03-29 16:45:00,
2013-03-29 09:50:00,65.5,28.4,30.12,SW,225,2.0,5.6,25,0.00,,,0.00,WUHU216HW,2013-03-29 16:50:00,
2013-03-29 09:55:00,66.1,28.8,30.12,SE,135,1.8,5.6,25,0.00,,,0.00,WUHU216HW,2013-03-29 16:55:00,
2013-03-29 10:00:00,66.2,29.0,30.12,SE,135,2.9,4.0,25,0.00,,,0.00,WUHU216HW,2013-03-29 17:00:00,
2013-03-29 10:05:00,66.2,29.0,30.11,SSE,158,0.9,3.4,25,0.00,,,0.00,WUHU216HW,2013-03-29 17:05:00,
2013-03-29 10:10:00,66.4,29.2,30.11,ESE,113,3.1,5.4,25,0.00,,,0.00,WUHU216HW,2013-03-29 17:10:00,
2013-03-29 10:15:00,66.6,29.3,30.11,ESE,113,1.8,5.4,25,0.00,,,0.00,WUHU216HW,2013-03-29 17:15:00,
2013-03-29 10:20:00,67.0,29.6,30.11,SE,135,1.1,4.0,25,0.00,,,0.00,WUHU216HW,2013-03-29 17:20:00,
2013-03-29 10:25:00,67.1,28.7,30.11,SE,135,2.2,4.7,24,0.00,,,0.00,WUHU216HW,2013-03-29 17:25:00,
2013-03-29 10:30:00,67.3,28.9,30.11,SE,135,0.0,4.7,24,0.00,,,0.00,WUHU216HW,2013-03-29 17:30:00,
2013-03-29 10:35:00,67.7,28.3,30.11,NW,315,3.4,5.1,23,0.00,,,0.00,WUHU216HW,2013-03-29 17:35:00,
2013-03-29 10:40:00,67.7,28.3,30.11,West,270,2.7,5.1,23,0.00,,,0.00,WUHU216HW,2013-03-29 17:40:00,
2013-03-29 10:45:00,68.0,28.5,30.11,ESE,113,2.9,4.0,23,0.00,,,0.00,WUHU216HW,2013-03-29 17:45:00,
2013-03-29 10:51:00,68.4,27.8,30.11,West,270,4.7,5.4,22,0.00,,,0.00,WUHU216HW,2013-03-29 17:51:00,
2013-03-29 10:56:00,68.8,27.1,30.11,WSW,248,3.8,6.3,21,0.00,,,0.00,WUHU216HW,2013-03-29 17:56:00,
2013-03-29 11:01:00,68.9,27.3,30.12,WSW,248,0.7,6.3,21,0.00,,,0.00,WUHU216HW,2013-03-29 18:01:00,
2013-03-29 11:06:00,69.1,28.5,30.11,SE,135,2.2,6.3,22,0.00,,,0.00,WUHU216HW,2013-03-29 18:06:00,
2013-03-29 11:11:00,69.5,28.7,30.11,WSW,248,2.0,4.0,22,0.00,,,0.00,WUHU216HW,2013-03-29 18:11:00,
2013-03-29 11:16:00,69.8,28.0,30.11,SW,225,0.7,4.3,21,0.00,,,0.00,WUHU216HW,2013-03-29 18:16:00,
2013-03-29 11:22:00,70.0,25.6,30.11,SW,225,1.8,6.7,19,0.00,,,0.00,WUHU216HW,2013-03-29 18:22:00,
2013-03-29 11:27:00,70.2,27.3,30.10,WSW,248,3.6,6.7,20,0.00,,,0.00,WUHU216HW,2013-03-29 18:27:00,
2013-03-29 11:32:00,70.2,28.3,30.10,NW,315,3.1,6.0,21,0.00,,,0.00,WUHU216HW,2013-03-29 18:32:00,
2013-03-29 11:37:00,70.6,25.9,30.10,South,180,3.4,4.7,19,0.00,,,0.00,WUHU216HW,2013-03-29 18:37:00,
2013-03-29 11:42:00,70.7,26.1,30.10,SE,135,3.1,6.9,19,0.00,,,0.00,WUHU216HW,2013-03-29 18:42:00,
2013-03-29 11:47:00,71.1,24.8,30.10,West,270,5.4,6.9,18,0.00,,,0.00,WUHU216HW,2013-03-29 18:47:00,
2013-03-29 11:52:00,71.5,26.6,30.10,WSW,248,2.0,5.6,19,0.00,,,0.00,WUHU216HW,2013-03-29 18:52:00,
2013-03-29 11:57:00,71.6,26.8,30.10,SSE,158,3.4,5.4,19,0.00,,,0.00,WUHU216HW,2013-03-29 18:57:00,
2013-03-29 12:02:00,71.5,26.6,30.10,SE,135,1.8,5.4,19,0.00,,,0.00,WUHU216HW,2013-03-29 19:02:00,
2013-03-29 12:07:00,71.6,26.8,30.09,ESE,113,4.9,4.9,19,0.00,,,0.00,WUHU216HW,2013-03-29 19:07:00,
2013-03-29 12:12:00,71.8,27.0,30.09,SE,135,2.5,4.9,19,0.00,,,0.00,WUHU216HW,2013-03-29 19:12:00,
2013-03-29 12:17:00,72.2,27.3,30.09,SE,135,2.7,6.0,19,0.00,,,0.00,WUHU216HW,2013-03-29 19:17:00,
2013-03-29 12:22:00,72.4,27.5,30.09,West,270,1.8,6.0,19,0.00,,,0.00,WUHU216HW,2013-03-29 19:22:00,
2013-03-29 12:27:00,72.5,26.0,30.09,NNW,338,1.6,4.7,18,0.00,,,0.00,WUHU216HW,2013-03-29 19:27:00,
2013-03-29 12:32:00,72.5,22.8,30.09,NW,315,9.2,11.4,16,0.00,,,0.00,WUHU216HW,2013-03-29 19:32:00,
2013-03-29 12:37:00,72.7,22.9,30.08,West,270,4.7,11.4,16,0.00,,,0.00,WUHU216HW,2013-03-29 19:37:00,
2013-03-29 12:42:00,73.1,23.2,30.09,SW,225,8.3,9.2,16,0.00,,,0.00,WUHU216HW,2013-03-29 19:42:00,
2013-03-29 12:48:00,73.1,23.2,30.08,SE,135,4.0,8.5,16,0.00,,,0.00,WUHU216HW,2013-03-29 19:48:00,
2013-03-29 12:53:00,73.3,23.3,30.08,ESE,113,3.4,8.5,16,0.00,,,0.00,WUHU216HW,2013-03-29 19:53:00,
2013-03-29 12:58:00,73.3,23.3,30.08,West,270,2.7,6.5,16,0.00,,,0.00,WUHU216HW,2013-03-29 19:58:00,
2013-03-29 13:03:00,73.6,22.0,30.08,South,180,3.4,6.5,15,0.00,,,0.00,WUHU216HW,2013-03-29 20:03:00,
2013-03-29 13:08:00,73.6,23.7,30.07,South,180,2.2,6.5,16,0.00,,,0.00,WUHU216HW,2013-03-29 20:08:00,
2013-03-29 13:13:00,73.8,23.8,30.07,WSW,248,4.0,8.7,16,0.00,,,0.00,WUHU216HW,2013-03-29 20:13:00,
2013-03-29 13:18:00,73.6,23.7,30.07,SE,135,6.5,8.7,16,0.00,,,0.00,WUHU216HW,2013-03-29 20:18:00,
2013-03-29 13:23:00,73.8,23.8,30.07,WSW,248,2.2,7.6,16,0.00,,,0.00,WUHU216HW,2013-03-29 20:23:00,
2013-03-29 13:28:00,73.4,25.1,30.07,WSW,248,5.4,9.4,17,0.00,,,0.00,WUHU216HW,2013-03-29 20:28:00,
2013-03-29 13:33:00,73.6,25.3,30.07,NNW,338,3.1,9.4,17,0.00,,,0.00,WUHU216HW,2013-03-29 20:33:00,
2013-03-29 13:38:00,73.8,25.4,30.07,ESE,113,1.8,5.4,17,0.00,,,0.00,WUHU216HW,2013-03-29 20:38:00,
2013-03-29 13:43:00,74.0,25.6,30.06,SE,135,4.0,6.5,17,0.00,,,0.00,WUHU216HW,2013-03-29 20:43:00,
2013-03-29 13:48:00,73.8,25.4,30.06,SE,135,0.9,6.5,17,0.00,,,0.00,WUHU216HW,2013-03-29 20:48:00,
2013-03-29 13:54:00,73.8,22.1,30.06,SW,225,4.0,7.6,15,0.00,,,0.00,WUHU216HW,2013-03-29 20:54:00,
2013-03-29 13:59:00,73.8,22.1,30.06,NW,315,2.7,7.8,15,0.00,,,0.00,WUHU216HW,2013-03-29 20:59:00,
2013-03-29 14:04:00,74.2,22.4,30.06,NNW,338,1.8,7.8,15,0.00,,,0.00,WUHU216HW,2013-03-29 21:04:00,
2013-03-29 14:09:00,74.2,22.4,30.05,NW,315,3.4,5.1,15,0.00,,,0.00,WUHU216HW,2013-03-29 21:09:00,
2013-03-29 14:14:00,74.9,21.3,30.05,SSW,203,6.9,6.9,14,0.00,,,0.00,WUHU216HW,2013-03-29 21:14:00,
2013-03-29 14:19:00,75.2,23.2,30.05,WSW,248,3.8,7.6,15,0.00,,,0.00,WUHU216HW,2013-03-29 21:19:00,
2013-03-29 14:24:00,75.2,23.2,30.04,West,270,6.3,10.3,15,0.00,,,0.00,WUHU216HW,2013-03-29 21:24:00,
2013-03-29 14:29:00,75.4,20.1,30.04,SW,225,6.3,10.3,13,0.00,,,0.00,WUHU216HW,2013-03-29 21:29:00,
2013-03-29 14:34:00,75.1,19.8,30.04,WSW,248,2.7,9.8,13,0.00,,,0.00,WUHU216HW,2013-03-29 21:34:00,
2013-03-29 14:39:00,75.1,19.8,30.04,SW,225,4.5,8.1,13,0.00,,,0.00,WUHU216HW,2013-03-29 21:39:00,
2013-03-29 14:44:00,75.2,19.9,30.04,WSW,248,6.9,8.1,13,0.00,,,0.00,WUHU216HW,2013-03-29 21:44:00,
2013-03-29 14:49:00,75.4,20.1,30.04,SSW,203,6.3,7.2,13,0.00,,,0.00,WUHU216HW,2013-03-29 21:49:00,
2013-03-29 14:55:00,76.0,23.8,30.04,ESE,113,3.4,7.8,15,0.00,,,0.00,WUHU216HW,2013-03-29 21:55:00,
2013-03-29 15:00:00,76.0,20.5,30.04,West,270,3.8,6.7,13,0.00,,,0.00,WUHU216HW,2013-03-29 22:00:00,
2013-03-29 15:05:00,75.8,20.3,30.04,NNW,338,2.9,8.9,13,0.00,,,0.00,WUHU216HW,2013-03-29 22:05:00,
2013-03-29 15:10:00,76.0,20.5,30.04,ESE,113,1.1,8.9,13,0.00,,,0.00,WUHU216HW,2013-03-29 22:10:00,
2013-03-29 15:16:00,76.1,20.6,30.04,SW,225,6.0,7.4,13,0.00,,,0.00,WUHU216HW,2013-03-29 22:16:00,
2013-03-29 15:21:00,76.1,20.6,30.04,WSW,248,3.6,7.4,13,0.00,,,0.00,WUHU216HW,2013-03-29 22:21:00,
2013-03-29 15:26:00,76.0,22.1,30.04,West,270,3.4,6.5,14,0.00,,,0.00,WUHU216HW,2013-03-29 22:26:00,
2013-03-29 15:31:00,76.1,20.6,30.04,WSW,248,4.3,6.9,13,0.00,,,0.00,WUHU216HW,2013-03-29 22:31:00,
2013-03-29 15:36:00,76.3,20.8,30.03,NNW,338,4.0,6.9,13,0.00,,,0.00,WUHU216HW,2013-03-29 22:36:00,
2013-03-29 15:41:00,76.1,20.6,30.04,SSE,158,2.5,6.7,13,0.00,,,0.00,WUHU216HW,2013-03-29 22:41:00,
2013-03-29 15:46:00,76.3,19.1,30.04,WSW,248,8.5,8.9,12,0.00,,,0.00,WUHU216HW,2013-03-29 22:46:00,
2013-03-29 15:51:00,76.5,19.3,30.04,WSW,248,6.3,8.9,12,0.00,,,0.00,WUHU216HW,2013-03-29 22:51:00,
2013-03-29 15:56:00,76.3,20.8,30.03,WNW,293,7.6,12.1,13,0.00,,,0.00,WUHU216HW,2013-03-29 22:56:00,
2013-03-29 16:01:00,76.3,20.8,30.03,SW,225,7.6,12.1,13,0.00,,,0.00,WUHU216HW,2013-03-29 23:01:00,
2013-03-29 16:06:00,76.7,21.1,30.03,West,270,5.6,9.2,13,0.00,,,0.00,WUHU216HW,2013-03-29 23:06:00,
2013-03-29 16:11:00,76.9,21.3,30.03,West,270,2.5,8.9,13,0.00,,,0.00,WUHU216HW,2013-03-29 23:11:00,
2013-03-29 16:16:00,77.2,21.5,30.03,WSW,248,3.1,8.9,13,0.00,,,0.00,WUHU216HW,2013-03-29 23:16:00,
2013-03-29 16:21:00,77.8,21.9,30.03,WSW,248,4.3,8.7,13,0.00,,,0.00,WUHU216HW,2013-03-29 23:21:00,
2013-03-29 16:26:00,77.9,22.0,30.03,SW,225,3.4,8.7,13,0.00,,,0.00,WUHU216HW,2013-03-29 23:26:00,
2013-03-29 16:31:00,77.4,23.3,30.03,SW,225,1.1,7.4,14,0.00,,,0.00,WUHU216HW,2013-03-29 23:31:00,
2013-03-29 16:36:00,77.2,21.5,30.03,WSW,248,4.0,6.3,13,0.00,,,0.00,WUHU216HW,2013-03-29 23:36:00,
2013-03-29 16:41:00,77.2,24.8,30.02,West,270,2.5,6.5,15,0.00,,,0.00,WUHU216HW,2013-03-29 23:41:00,
2013-03-29 16:46:00,77.0,24.7,30.02,SW,225,2.5,6.9,15,0.00,,,0.00,WUHU216HW,2013-03-29 23:46:00,
2013-03-29 16:51:00,77.4,24.9,30.02,WSW,248,4.5,6.9,15,0.00,,,0.00,WUHU216HW,2013-03-29 23:51:00,
2013-03-29 16:56:00,77.9,22.0,30.03,WSW,248,3.6,8.1,13,0.00,,,0.00,WUHU216HW,2013-03-29 23:56:00,
2013-03-29 17:01:00,78.5,22.4,30.03,West,270,2.9,8.1,13,0.00,,,0.00,WUHU216HW,2013-03-30 00:01:00,
2013-03-29 17:06:00,79.0,22.8,30.03,NW,315,1.3,6.7,13,0.00,,,0.00,WUHU216HW,2013-03-30 00:06:00,
2013-03-29 17:11:00,78.1,22.2,30.03,WNW,293,4.3,6.9,13,0.00,,,0.00,WUHU216HW,2013-03-30 00:11:00,
2013-03-29 17:16:00,77.2,21.5,30.03,WSW,248,5.1,7.2,13,0.00,,,0.00,WUHU216HW,2013-03-30 00:16:00,
2013-03-29 17:21:00,76.9,21.3,30.03,SW,225,6.3,8.5,13,0.00,,,0.00,WUHU216HW,2013-03-30 00:21:00,
2013-03-29 17:26:00,76.7,19.5,30.03,SW,225,6.7,8.5,12,0.00,,,0.00,WUHU216HW,2013-03-30 00:26:00,
2013-03-29 17:31:00,76.7,19.5,30.03,NNW,338,4.7,7.8,12,0.00,,,0.00,WUHU216HW,2013-03-30 00:31:00,
2013-03-29 17:36:00,77.2,19.8,30.03,WNW,293,4.5,7.2,12,0.00,,,0.00,WUHU216HW,2013-03-30 00:36:00,
2013-03-29 17:41:00,77.2,19.8,30.03,WSW,248,4.0,8.5,12,0.00,,,0.00,WUHU216HW,2013-03-30 00:41:00,
2013-03-29 17:46:00,76.9,19.5,30.04,WSW,248,5.4,8.5,12,0.00,,,0.00,WUHU216HW,2013-03-30 00:46:00,
2013-03-29 17:52:00,76.0,18.8,30.04,SW,225,4.3,6.9,12,0.00,,,0.00,WUHU216HW,2013-03-30 00:52:00,
2013-03-29 17:57:00,75.4,18.4,30.04,SW,225,4.7,6.9,12,0.00,,,0.00,WUHU216HW,2013-03-30 00:57:00,
2013-03-29 18:02:00,74.5,17.7,30.04,West,270,4.7,8.7,12,0.00,,,0.00,WUHU216HW,2013-03-30 01:02:00,
2013-03-29 18:07:00,73.8,18.9,30.04,West,270,6.3,8.7,13,0.00,,,0.00,WUHU216HW,2013-03-30 01:07:00,
2013-03-29 18:12:00,73.3,21.7,30.04,SW,225,5.6,8.3,15,0.00,,,0.00,WUHU216HW,2013-03-30 01:12:00,
2013-03-29 18:17:00,72.9,21.4,30.04,SW,225,6.9,8.3,15,0.00,,,0.00,WUHU216HW,2013-03-30 01:17:00,
2013-03-29 18:22:00,72.5,22.8,30.04,SW,225,5.4,7.2,16,0.00,,,0.00,WUHU216HW,2013-03-30 01:22:00,
2013-03-29 18:27:00,72.0,22.2,30.04,NW,315,3.8,6.9,16,0.00,,,0.00,WUHU216HW,2013-03-30 01:27:00,
2013-03-29 18:32:00,71.5,23.4,30.04,West,270,2.5,5.4,17,0.00,,,0.00,WUHU216HW,2013-03-30 01:32:00,
2013-03-29 18:37:00,71.1,23.1,30.04,WNW,293,2.5,5.4,17,0.00,,,0.00,WUHU216HW,2013-03-30 01:37:00,
2013-03-29 18:42:00,70.6,22.7,30.05,NW,315,1.8,4.7,17,0.00,,,0.00,WUHU216HW,2013-03-30 01:42:00,
2013-03-29 18:47:00,70.2,24.0,30.05,WSW,248,4.3,4.7,18,0.00,,,0.00,WUHU216HW,2013-03-30 01:47:00,
2013-03-29 18:52:00,70.0,24.0,30.05,WSW,248,2.0,4.3,18,0.00,,,0.00,WUHU216HW,2013-03-30 01:52:00,
2013-03-29 18:57:00,69.7,23.6,30.05,WSW,248,3.1,4.3,18,0.00,,,0.00,WUHU216HW,2013-03-30 01:57:00,
2013-03-29 19:02:00,69.3,24.9,30.05,SSE,158,1.8,3.1,19,0.00,,,0.00,WUHU216HW,2013-03-30 02:02:00,
2013-03-29 19:07:00,69.1,23.2,30.05,NW,315,1.8,4.3,18,0.00,,,0.00,WUHU216HW,2013-03-30 02:07:00,
2013-03-29 19:13:00,68.9,23.0,30.05,WSW,248,1.3,4.3,18,0.00,,,0.00,WUHU216HW,2013-03-30 02:13:00,
2013-03-29 19:18:00,68.8,24.6,30.05,West,270,0.4,2.9,19,0.00,,,0.00,WUHU216HW,2013-03-30 02:18:00,
2013-03-29 19:22:00,68.2,24.1,30.05,West,270,0.7,2.9,19,0.00,,,0.00,WUHU216HW,2013-03-30 02:22:00,
2013-03-29 19:28:00,67.7,23.7,30.05,SW,225,2.0,2.5,19,0.00,,,0.00,WUHU216HW,2013-03-30 02:28:00,
2013-03-29 19:33:00,67.5,23.5,30.06,WSW,248,1.3,2.5,19,0.00,,,0.00,WUHU216HW,2013-03-30 02:33:00,
2013-03-29 19:38:00,67.1,23.1,30.06,West,270,0.4,2.0,19,0.00,,,0.00,WUHU216HW,2013-03-30 02:38:00,
2013-03-29 19:43:00,67.0,23.1,30.06,WSW,248,0.7,1.8,19,0.00,,,0.00,WUHU216HW,2013-03-30 02:43:00,
2013-03-29 19:48:00,66.6,22.7,30.06,WSW,248,0.4,1.8,19,0.00,,,0.00,WUHU216HW,2013-03-30 02:48:00,
2013-03-29 19:53:00,66.2,22.3,30.06,WNW,293,0.0,1.3,19,0.00,,,0.00,WUHU216HW,2013-03-30 02:53:00,
2013-03-29 19:58:00,65.9,22.1,30.07,NNW,338,0.4,1.8,19,0.00,,,0.00,WUHU216HW,2013-03-30 02:58:00,
2013-03-29 20:03:00,65.9,22.1,30.07,NNW,338,0.7,1.8,19,0.00,,,0.00,WUHU216HW,2013-03-30 03:03:00,
2013-03-29 20:08:00,66.2,20.8,30.07,NNW,338,0.2,3.8,18,0.00,,,0.00,WUHU216HW,2013-03-30 03:08:00,
2013-03-29 20:13:00,66.4,21.0,30.07,NNW,338,0.4,3.8,18,0.00,,,0.00,WUHU216HW,2013-03-30 03:13:00,
2013-03-29 20:18:00,66.4,21.0,30.07,NW,315,0.9,3.4,18,0.00,,,0.00,WUHU216HW,2013-03-30 03:18:00,
2013-03-29 20:23:00,66.6,21.1,30.07,NW,315,0.4,3.1,18,0.00,,,0.00,WUHU216HW,2013-03-30 03:23:00,
2013-03-29 20:28:00,66.2,20.8,30.07,NNW,338,2.5,3.8,18,0.00,,,0.00,WUHU216HW,2013-03-30 03:28:00,
2013-03-29 20:33:00,66.2,20.8,30.07,North,0,1.8,3.8,18,0.00,,,0.00,WUHU216HW,2013-03-30 03:33:00,
2013-03-29 20:38:00,66.2,19.2,30.08,NNW,338,2.0,3.6,17,0.00,,,0.00,WUHU216HW,2013-03-30 03:38:00,
2013-03-29 20:44:00,66.4,19.4,30.08,NW,315,3.4,5.4,17,0.00,,,0.00,WUHU216HW,2013-03-30 03:44:00,
2013-03-29 20:49:00,66.2,19.2,30.08,NNW,338,2.5,5.4,17,0.00,,,0.00,WUHU216HW,2013-03-30 03:49:00,
2013-03-29 20:54:00,66.1,19.1,30.08,NNW,338,2.2,4.9,17,0.00,,,0.00,WUHU216HW,2013-03-30 03:54:00,
2013-03-29 20:59:00,66.1,19.1,30.08,WSW,248,1.8,3.8,17,0.00,,,0.00,WUHU216HW,2013-03-30 03:59:00,
2013-03-29 21:00:00,65.9,18.9,30.08,NW,315,1.1,3.8,17,0.00,,,0.00,WUHU216HW,2013-03-30 04:00:00,
2013-03-29 21:05:00,65.9,17.3,30.08,NNW,338,2.9,3.6,16,0.00,,,0.00,WUHU216HW,2013-03-30 04:05:00,
2013-03-29 21:10:00,65.9,17.3,30.09,North,0,0.2,3.4,16,0.00,,,0.00,WUHU216HW,2013-03-30 04:10:00,
2013-03-29 21:15:00,65.9,18.9,30.09,NNW,338,0.7,3.1,17,0.00,,,0.00,WUHU216HW,2013-03-30 04:15:00,
2013-03-29 21:20:00,65.7,17.2,30.09,WNW,293,1.6,4.3,16,0.00,,,0.00,WUHU216HW,2013-03-30 04:20:00,
2013-03-29 21:25:00,65.7,17.2,30.09,WNW,293,3.4,4.3,16,0.00,,,0.00,WUHU216HW,2013-03-30 04:25:00,
2013-03-29 21:30:00,65.7,17.2,30.09,NW,315,3.4,4.0,16,0.00,,,0.00,WUHU216HW,2013-03-30 04:30:00,
2013-03-29 21:35:00,65.5,17.0,30.09,North,0,2.2,5.1,16,0.00,,,0.00,WUHU216HW,2013-03-30 04:35:00,
2013-03-29 21:40:00,65.7,17.2,30.09,West,270,4.5,5.1,16,0.00,,,0.00,WUHU216HW,2013-03-30 04:40:00,
2013-03-29 21:45:00,65.7,17.2,30.09,NW,315,1.6,5.4,16,0.00,,,0.00,WUHU216HW,2013-03-30 04:45:00,
2013-03-29 21:50:00,65.7,15.6,30.09,NW,315,4.7,5.4,15,0.00,,,0.00,WUHU216HW,2013-03-30 04:50:00,
2013-03-29 21:55:00,65.5,15.5,30.09,NW,315,1.1,4.7,15,0.00,,,0.00,WUHU216HW,2013-03-30 04:55:00,
2013-03-29 22:00:00,65.5,15.5,30.09,NW,315,2.2,4.3,15,0.00,,,0.00,WUHU216HW,2013-03-30 05:00:00,
2013-03-29 22:05:00,65.2,16.7,30.09,North,0,2.5,3.4,16,0.00,,,0.00,WUHU216HW,2013-03-30 05:05:00,
2013-03-29 22:10:00,65.0,16.6,30.09,WNW,293,1.3,3.4,16,0.00,,,0.00,WUHU216HW,2013-03-30 05:10:00,
2013-03-29 22:15:00,65.0,15.0,30.09,NNW,338,4.0,4.0,15,0.00,,,0.00,WUHU216HW,2013-03-30 05:15:00,
2013-03-29 22:20:00,65.3,15.3,30.09,NW,315,1.8,4.0,15,0.00,,,0.00,WUHU216HW,2013-03-30 05:20:00,
2013-03-29 22:25:00,65.2,15.1,30.10,NW,315,5.4,5.4,15,0.00,,,0.00,WUHU216HW,2013-03-30 05:25:00,
2013-03-29 22:30:00,65.2,15.1,30.09,NNW,338,3.4,5.8,15,0.00,,,0.00,WUHU216HW,2013-03-30 05:30:00,
2013-03-29 22:35:00,65.0,15.0,30.09,North,0,2.2,5.8,15,0.00,,,0.00,WUHU216HW,2013-03-30 05:35:00,
2013-03-29 22:40:00,64.8,14.9,30.09,NNW,338,1.6,4.9,15,0.00,,,0.00,WUHU216HW,2013-03-30 05:40:00,
2013-03-29 22:46:00,64.8,16.5,30.09,NNW,338,1.1,3.8,16,0.00,,,0.00,WUHU216HW,2013-03-30 05:46:00,
2013-03-29 22:51:00,64.6,16.3,30.10,NE,45,1.1,3.1,16,0.00,,,0.00,WUHU216HW,2013-03-30 05:51:00,
2013-03-29 22:56:00,64.4,16.2,30.10,NNW,338,1.1,3.8,16,0.00,,,0.00,WUHU216HW,2013-03-30 05:56:00,
2013-03-29 23:01:00,64.4,16.2,30.10,NW,315,2.2,3.8,16,0.00,,,0.00,WUHU216HW,2013-03-30 06:01:00,
2013-03-29 23:06:00,64.3,16.0,30.09,NNW,338,2.0,3.1,16,0.00,,,0.00,WUHU216HW,2013-03-30 06:06:00,
2013-03-29 23:11:00,64.1,15.9,30.09,NW,315,0.7,4.7,16,0.00,,,0.00,WUHU216HW,2013-03-30 06:11:00,
2013-03-29 23:16:00,63.7,15.7,30.09,NW,315,0.0,4.7,16,0.00,,,0.00,WUHU216HW,2013-03-30 06:16:00,
2013-03-29 23:21:00,63.4,15.3,30.10,WSW,248,0.2,2.2,16,0.00,,,0.00,WUHU216HW,2013-03-30 06:21:00,
2013-03-29 23:26:00,62.8,15.0,30.10,WNW,293,0.0,1.1,16,0.00,,,0.00,WUHU216HW,2013-03-30 06:26:00,
2013-03-29 23:31:00,62.6,16.4,30.10,NNW,338,1.1,2.5,17,0.00,,,0.00,WUHU216HW,2013-03-30 06:31:00,
2013-03-29 23:36:00,62.8,16.5,30.10,North,0,0.7,2.5,17,0.00,,,0.00,WUHU216HW,2013-03-30 06:36:00,
2013-03-29 23:41:00,62.8,15.0,30.10,North,0,0.2,1.8,16,0.00,,,0.00,WUHU216HW,2013-03-30 06:41:00,
2013-03-29 23:47:00,62.8,16.5,30.10,NNW,338,0.2,1.8,17,0.00,,,0.00,WUHU216HW,2013-03-30 06:47:00,
2013-03-29 23:52:00,63.0,16.7,30.10,NW,315,0.4,1.8,17,0.00,,,0.00,WUHU216HW,2013-03-30 06:52:00,
2013-03-29 23:57:00,62.8,16.5,30.10,NW,315,0.0,1.3,17,0.00,,,0.00,WUHU216HW,2013-03-30 06:57:00,